Culdrose, United Kingdom

11:56 PM GMT on November 21, 2017 (GMT +0000)
Culdrose Navy

Weather History for EGDR - September, 2012

Change the Weather History Date:

Friday, September 28, 2012

  Actual Average Record
Temperature  
Mean Temperature 56 °F -  
Max Temperature 60 °F 56 °F 69 °F (2011)
Min Temperature 51 °F 48 °F 42 °F (2007)
Degree Days  
Heating Degree Days 9    
Growing Degree Days 6 (Base 50)    
Moisture  
Dew Point 52 °F    
Average Humidity 84    
Maximum Humidity 100    
Minimum Humidity 62    
Precipitation  
Precipitation 0.04 in - - ()
Sea Level Pressure  
Sea Level Pressure 29.96 in    
Wind  
Wind Speed 10 mph ()    
Max Wind Speed 15 mph    
Max Gust Speed 26 mph    
Visibility 6.9 miles    
Events Rain    
Averages and records for this station are not official NWS values.
T = Trace of Precipitation, MM = Missing Value Source: Averaged Metar Reports

Daily Weather History Graph

Daily Weather History Graph

Search for Another Location

Airport or City:

Trip Planner

Search our weather history database for the weather conditions in past years. The results will help you decide how hot, cold, wet, or windy it might be!

Date:

Astronomy

Sep. 28, 2012 Rise Set
Actual Time 7:16 AM BST 7:05 PM BST
Civil Twilight 6:44 AM BST 7:37 PM BST
Nautical Twilight 6:06 AM BST 8:15 PM BST
Astronomical Twilight 5:28 AM BST 8:53 PM BST
Moon 6:02 PM BST (9/28) 5:27 AM BST (9/28)
Length of Visible Light 12h 52m
Length of Day
11h 48m
Waxing Gibbous, 97% of the Moon is Illuminated
Sep 28
Waxing Gibbous
Sep 30
Full
Oct 8
Last Quarter
Oct 15
New
Oct 22
First Quarter

Hourly Weather History & Observations

Time (BST) Temp. Dew Point Humidity Pressure Visibility Wind Dir Wind Speed Gust Speed Precip Events Conditions
12:50 AM 56 °F 51 °F 78% 29.97 in 16 mi West 10.4 mph - -   Mostly Cloudy
12:50 AM 55.4 °F 51.8 °F 88% 29.95 in 6.2 mi West 10.4 mph - N/A   Mostly Cloudy
1:50 AM 57.2 °F 51.8 °F 82% 29.95 in 6.2 mi WSW 12.7 mph - N/A   Mostly Cloudy
2:50 AM 55.4 °F 53.6 °F 94% 29.95 in 6.2 mi West 11.5 mph - N/A Rain Light Rain
3:50 AM 56 °F 54 °F 89% 29.94 in 7 mi WSW 12.7 mph - - Rain Light Rain
3:50 AM 55.4 °F 53.6 °F 94% 29.92 in 6.2 mi WSW 12.7 mph - N/A Rain Light Rain
4:50 AM 57.2 °F 53.6 °F 88% 29.92 in 6.2 mi WSW 12.7 mph - N/A   Light Drizzle
5:50 AM 57.2 °F 53.6 °F 88% 29.92 in 6.2 mi WSW 15.0 mph - N/A   Light Drizzle
6:50 AM 56 °F 55 °F 95% 29.92 in 5 mi WSW 15.0 mph - - Rain Light Drizzle
6:50 AM 57.2 °F 55.4 °F 94% 29.92 in 5.0 mi WSW 15.0 mph - N/A   Light Drizzle
7:50 AM 55.4 °F 53.6 °F 94% 29.92 in 2.2 mi WNW 13.8 mph 26.5 mph N/A Rain Light Rain
8:50 AM 53.6 °F 53.6 °F 100% 29.92 in 2.5 mi West 8.1 mph - N/A   Light Drizzle
9:05 AM 53.6 °F 53.6 °F 100% 29.92 in 4.3 mi West 5.8 mph - N/A   Mostly Cloudy
9:50 AM 55 °F 53 °F 92% 29.96 in 6 mi West 5.8 mph - - Rain Light Rain
9:50 AM 55.4 °F 53.6 °F 94% 29.95 in 6.2 mi West 5.8 mph - N/A Rain Light Rain
10:50 AM 57.2 °F 51.8 °F 82% 29.95 in 6.2 mi West 11.5 mph - N/A   Mostly Cloudy
11:50 AM 59.0 °F 51.8 °F 77% 29.95 in 6.2 mi West 11.5 mph - N/A   Mostly Cloudy
12:50 PM 59 °F 50 °F 63% 29.97 in 16 mi West 12.7 mph - -   Partly Cloudy
12:50 PM 59.0 °F 50.0 °F 72% 29.95 in 6.2 mi West 12.7 mph - N/A   Mostly Cloudy
1:50 PM 59.0 °F 48.2 °F 67% 29.98 in 6.2 mi West 12.7 mph - N/A   Mostly Cloudy
2:50 PM 59.0 °F 48.2 °F 67% 29.98 in 6.2 mi WNW 12.7 mph - N/A   Scattered Clouds
3:50 PM 58 °F 48 °F 62% 29.99 in 16 mi NW 12.7 mph - -   Mostly Cloudy
3:50 PM 59.0 °F 48.2 °F 67% 29.98 in 6.2 mi NW 12.7 mph - N/A   Scattered Clouds
4:50 PM 57.2 °F 50.0 °F 77% 29.98 in 6.2 mi West 12.7 mph - N/A   Mostly Cloudy
5:50 PM 57.2 °F 50.0 °F 77% 29.98 in 6.2 mi West 11.5 mph - N/A   Partly Cloudy
6:50 PM 55 °F 50 °F 76% 30.00 in 12 mi WNW 8.1 mph - -   Partly Cloudy
6:50 PM 55.4 °F 50.0 °F 82% 29.98 in 6.2 mi WNW 8.1 mph - N/A   Partly Cloudy
7:50 PM 55.4 °F 51.8 °F 88% 30.01 in 6.2 mi West 8.1 mph - N/A   Mostly Cloudy
8:50 PM 55.4 °F 51.8 °F 88% 30.01 in 6.2 mi West 10.4 mph - N/A   Mostly Cloudy
9:50 PM 53.6 °F 50.0 °F 88% 30.04 in 6.2 mi West 10.4 mph - N/A   Mostly Cloudy
10:50 PM 53.6 °F 50.0 °F 88% 30.04 in 6.2 mi WNW 10.4 mph - N/A   Mostly Cloudy
11:50 PM 51.8 °F 50.0 °F 94% 30.04 in 6.2 mi WNW 11.5 mph - N/A   Unknown